AD8BW Weather Reports


Display with metric or nautical units.
time (UTC)temp
F
wind
direction
speed
MPH
gust
MPH
rain 1hr
in
rain 24hr
in
rain mn
in
humidity
%
barometer
mb
20260904140656 67 195 2.0 5.0 0.02 0.03 0.04 97 1016.0
20260904135652 67 182 2.0 9.0 0.03 0.03 0.03 97 1016.0
20260904134655 67 188 0.0 5.0 0.03 0.03 0.03 97 1016.5
20260904133653 67 203 0.0 0.0 0.02 0.02 0.02 97 1016.2
20260904132652 67 203 0.0 2.0 0.02 0.02 0.02 97 1016.4
20260904131652 67 338 0.0 0.0 0.02 0.02 0.02 97 1016.0
20260904130651 67 311 0.0 4.0 0.01 0.01 0.01 97 1016.5
20260904125650 67 191 0.0 5.0 0.00 0.00 0.00 97 1016.5
20260904124650 67 185 0.0 4.0 0.00 0.00 0.00 97 1016.2
20260904123649 67 185 2.0 7.0 0.00 0.00 0.00 97 1016.0
20260904122650 67 188 2.0 5.0 0.00 0.00 0.00 97 1015.9
20260904121647 67 196 2.0 7.0 0.00 0.00 0.00 97 1016.0
20260904120646 67 190 2.0 7.0 0.00 0.00 0.00 97 1015.7
20260904115643 67 184 0.0 2.0 0.00 0.00 0.00 97 1015.5
20260904114646 67 184 0.0 4.0 0.00 0.00 0.00 97 1015.6
20260904114143 67 184 0.0 4.0 0.00 0.00 0.00 97 1015.7
20260904112642 67 189 0.0 5.0 0.00 0.00 0.00 97 1015.6
20260904111640 67 167 2.0 7.0 0.00 0.00 0.00 97 1015.1
20260904110641 67 203 2.0 7.0 0.00 0.00 0.00 97 1015.4
20260904105642 67 161 0.0 0.0 0.00 0.00 0.00 97 1015.1
20260904104642 67 128 0.0 2.0 0.00 0.00 0.00 97 1014.9
20260904103639 67 85 0.0 4.0 0.00 0.00 0.00 97 1014.7
20260904102643 67 42 0.0 0.0 0.00 0.00 0.00 97 1014.6
20260904101649 67 42 0.0 0.0 0.00 0.00 0.00 97 1014.3
20260904100638 67 42 0.0 0.0 0.00 0.00 0.00 97 1014.2
20260904095636 67 42 0.0 0.0 0.00 0.00 0.00 96 1014.0
20260904094637 67 40 0.0 0.0 0.00 0.00 0.00 96 1014.0
20260904093636 67 40 0.0 0.0 0.00 0.00 0.00 96 1014.1
20260904092634 67 40 0.0 0.0 0.00 0.00 0.00 96 1014.4
20260904091635 67 40 0.0 0.0 0.00 0.00 0.00 96 1014.8
20260904090638 67 40 0.0 0.0 0.00 0.00 0.00 96 1015.1
20260904085637 67 40 0.0 0.0 0.00 0.00 0.00 96 1015.1
20260904084633 67 40 0.0 0.0 0.00 0.00 0.00 96 1015.0
20260904083629 66 40 0.0 0.0 0.00 0.00 0.00 96 1015.0
20260904082631 67 40 0.0 0.0 0.00 0.00 0.00 96 1014.7
20260904081631 66 40 0.0 0.0 0.00 0.00 0.00 96 1014.7
20260904080635 66 40 0.0 0.0 0.00 0.00 0.00 96 1015.1
20260904075631 66 40 0.0 2.0 0.00 0.00 0.00 96 1015.0
20260904074627 66 40 0.0 4.0 0.00 0.00 0.00 96 1014.9
20260904073631 66 40 0.0 2.0 0.00 0.00 0.00 96 1014.7
20260904072629 67 40 0.0 4.0 0.00 0.00 0.00 96 1014.7
20260904071629 66 43 0.0 4.0 0.00 0.00 0.00 96 1014.6
20260904070627 66 43 0.0 4.0 0.00 0.00 0.00 96 1014.8
20260904065627 65 265 0.0 0.0 0.00 0.00 0.00 95 1015.1
20260904064629 66 265 0.0 0.0 0.00 0.00 0.00 95 1015.6
20260904063627 66 265 0.0 0.0 0.00 0.00 0.00 95 1015.5
20260904062629 66 265 0.0 0.0 0.00 0.00 0.00 95 1015.7
20260904061628 66 265 0.0 0.0 0.00 0.00 0.00 95 1015.7
20260904060630 66 265 0.0 0.0 0.00 0.00 0.00 95 1015.6
20260904055628 66 265 0.0 0.0 0.00 0.00 0.00 95 1015.7
20260904054622 66 265 0.0 0.0 0.00 0.00 0.00 95 1015.7
20260904053623 66 265 0.0 0.0 0.00 0.00 0.00 95 1015.8
20260904052624 66 265 0.0 0.0 0.00 0.00 0.00 95 1015.7
20260904051621 66 265 0.0 0.0 0.00 0.00 0.00 95 1015.7
20260904050622 66 265 0.0 0.0 0.00 0.00 0.00 95 1015.9
20260904045625 66 265 0.0 0.0 0.00 0.00 0.00 95 1015.8
20260904044624 67 265 0.0 0.0 0.00 0.00 0.00 95 1015.8
20260904043623 67 265 0.0 0.0 0.00 0.00 0.00 95 1015.8
20260904042621 67 265 0.0 0.0 0.00 0.00 0.00 95 1015.9
20260904041620 67 265 0.0 0.0 0.00 0.00 0.00 95 1015.7
20260904040622 67 265 0.0 0.0 0.00 0.00 0.00 95 1015.5
20260904035618 67 265 0.0 0.0 0.00 0.00 0.99 95 1015.5
20260904034621 67 265 0.0 0.0 0.00 0.00 0.99 95 1015.1
20260904033620 67 265 0.0 0.0 0.00 0.00 0.99 95 1015.0
20260904032620 67 265 0.0 0.0 0.00 0.00 0.99 95 1014.9
20260904031619 67 265 0.0 0.0 0.00 0.00 0.99 95 1014.9
20260904030619 68 265 0.0 0.0 0.00 0.00 0.99 95 1015.0
20260904025628 68 265 0.0 0.0 0.00 0.00 0.99 95 1014.8
20260904024631 68 265 0.0 0.0 0.00 0.00 0.99 95 1014.8
20260904023815 68 265 0.0 0.0 0.00 0.99 0.99 95 1014.8
20260904022814 68 265 0.0 0.0 0.00 0.99 0.99 95 1014.8
20260904021819 68 265 0.0 0.0 0.00 0.99 0.99 95 1014.8
20260904020815 68 265 0.0 0.0 0.00 0.99 0.99 95 1014.8
20260904015815 69 265 0.0 0.0 0.00 0.99 0.99 95 1014.8
20260904014817 69 265 0.0 0.0 0.00 0.99 0.99 95 1014.9
20260904013817 69 265 0.0 0.0 0.00 0.99 0.99 95 1015.1
20260904012812 69 265 0.0 0.0 0.00 0.99 0.99 95 1015.2
20260904011814 69 265 0.0 0.0 0.00 0.99 0.99 95 1015.1
20260904010816 69 265 0.0 0.0 0.00 0.99 0.99 95 1015.0
20260904005813 69 265 0.0 0.0 0.00 0.99 0.99 95 1014.8
20260904004815 69 265 0.0 0.0 0.00 0.99 0.99 95 1014.7
20260904003815 69 265 0.0 0.0 0.00 0.99 0.99 95 1014.2
20260904002814 69 265 0.0 0.0 0.00 0.99 0.99 95 1014.1
20260904001813 70 265 0.0 4.0 0.00 0.99 0.99 95 1014.1
20260904000812 70 195 4.0 7.0 0.00 0.99 0.99 95 1013.9
20260903235817 70 187 2.0 7.0 0.00 0.99 0.99 95 1013.9
20260903234817 70 188 2.0 11.0 0.00 0.99 0.99 95 1013.8
20260903233803 70 181 0.0 9.0 0.00 0.99 0.99 95 1013.8
20260903232807 70 196 2.0 9.0 0.00 0.99 0.99 95 1013.5
20260903231806 70 190 4.0 7.0 0.00 0.99 0.99 95 1013.3
20260903230806 70 176 0.0 4.0 0.00 0.99 0.99 95 1013.0
20260903225804 70 176 0.0 0.0 0.00 0.99 0.99 95 1013.1
20260903224806 70 176 0.0 0.0 0.00 0.99 0.99 95 1013.5
20260903223803 70 176 2.0 4.0 0.00 0.99 0.99 95 1013.7
20260903222808 70 176 2.0 4.0 0.00 0.99 0.99 95 1014.2
20260903221811 70 194 0.0 0.0 0.00 0.99 0.99 95 1014.1
20260903220802 70 194 0.0 4.0 0.00 0.99 0.99 95 1014.3
20260903215805 70 179 0.0 4.0 0.00 0.99 0.99 95 1014.2
20260903214805 70 159 0.0 4.0 0.00 0.99 0.99 95 1014.2
20260903213804 70 194 2.0 5.0 0.01 0.99 0.99 95 1014.3
20260903212805 70 178 0.0 5.0 0.02 0.99 0.99 95 1014.6
20260903211802 70 0 0.0 4.0 0.04 0.99 0.99 94 1014.4
20260903210805 70 30 0.0 5.0 0.04 0.99 0.99 94 1014.4
20260903205800 70 42 0.0 5.0 0.05 0.99 0.99 94 1014.4
20260903204801 70 16 2.0 5.0 0.12 0.99 0.99 94 1014.6
20260903203759 70 346 2.0 11.0 0.27 0.98 0.98 94 1014.8
20260903202802 69 355 2.0 5.0 0.26 0.97 0.97 93 1014.6
20260903201804 70 343 2.0 7.0 0.24 0.95 0.95 93 1015.0
20260903200759 70 317 4.0 9.0 0.24 0.95 0.95 93 1015.5
20260903195759 70 342 5.0 9.0 0.23 0.94 0.94 92 1014.8
20260903194805 71 350 7.0 16.0 0.16 0.87 0.87 92 1014.8
20260903193759 71 333 7.0 18.0 0.00 0.71 0.71 92 1014.9
20260903192801 72 298 0.0 7.0 0.00 0.71 0.71 93 1014.5
20260903191759 72 344 2.0 5.0 0.00 0.71 0.71 93 1013.8
20260903190755 73 294 2.0 9.0 0.00 0.71 0.71 93 1013.7
20260903185756 74 349 2.0 11.0 0.00 0.71 0.71 93 1014.2
20260903184753 74 184 0.0 4.0 0.00 0.71 0.71 94 1013.5
20260903183755 74 98 0.0 0.0 0.00 0.71 0.71 93 1013.5
20260903182753 74 98 0.0 0.0 0.00 0.71 0.71 94 1013.6
20260903181751 74 98 0.0 0.0 0.00 0.71 0.71 94 1013.5
20260903180755 74 98 0.0 0.0 0.00 0.71 0.71 94 1013.4
20260903175754 74 98 0.0 0.0 0.00 0.71 0.71 93 1013.4
20260903174752 74 98 0.0 0.0 0.00 0.71 0.71 94 1013.4
20260903173752 73 98 0.0 0.0 0.01 0.71 0.71 94 1013.3
20260903172756 73 98 0.0 0.0 0.20 0.71 0.71 94 1013.5
20260903171751 72 98 0.0 0.0 0.33 0.71 0.71 95 1013.4
20260903170751 72 98 0.0 0.0 0.33 0.71 0.71 94 1013.4
20260903165753 71 98 0.0 0.0 0.33 0.71 0.71 94 1013.5
20260903164756 70 345 0.0 2.0 0.33 0.71 0.71 94 1013.7
20260903163749 69 344 2.0 12.0 0.38 0.70 0.70 91 1013.7
20260903162752 69 203 5.0 27.0 0.33 0.51 0.53 89 1014.8
20260903161751 69 200 0.0 4.0 0.38 0.38 0.38 89 1014.9
20260903160751 69 217 0.0 5.0 0.38 0.38 0.38 87 1015.5
20260903155750 69 329 2.0 5.0 0.38 0.38 0.38 86 1015.5
20260903154750 70 156 7.0 18.0 0.38 0.38 0.38 84 1015.7
20260903153746 72 130 9.0 20.0 0.32 0.32 0.33 82 1016.2
20260903152751 76 282 5.0 32.0 0.18 0.18 0.18 82 1017.2
20260903151743 79 344 0.0 5.0 0.00 0.00 0.00 83 1016.3
20260903150743 79 198 0.0 0.0 0.00 0.00 0.00 81 1014.8
20260903145746 79 198 0.0 0.0 0.00 0.00 0.00 80 1014.4
20260903144745 79 198 0.0 0.0 0.00 0.00 0.00 80 1014.0
20260903143743 79 198 0.0 4.0 0.00 0.00 0.00 80 1014.1
20260903142741 79 182 0.0 7.0 0.00 0.00 0.00 80 1014.2
20260903141744 78 327 0.0 4.0 0.00 0.00 0.00 82 1014.1